Time,TemperatureF,DewpointF,PressureIn,WindDirection,WindDirectionDegrees,WindSpeedMPH,WindSpeedGustMPH,Humidity,HourlyPrecipIn,Conditions,Clouds,dailyrainin,SolarRadiationWatts/m^2,SoftwareType,DateUTC
2013-09-19 04:22:00,59.0,31.0,-100.00,South,188,0.0,2.0,34,-99.99,,,0.00,0.000000,,2013-09-19 11:22:00,
2013-09-19 04:33:00,59.0,31.0,-100.00,South,188,0.0,2.0,34,-99.99,,,0.00,0.000000,,2013-09-19 11:33:00,
2013-09-19 04:42:00,59.0,31.0,-100.00,South,188,0.0,2.0,34,-99.99,,,0.00,0.000000,,2013-09-19 11:42:00,
2013-09-19 04:52:00,59.0,31.0,-100.00,South,188,0.0,2.0,34,-99.99,,,0.00,0.000000,,2013-09-19 11:52:00,
2013-09-19 05:21:00,60.0,33.0,-100.00,South,180,0.0,2.0,36,0.00,,,0.00,0.000000,,2013-09-19 12:21:00,
2013-09-19 05:32:00,60.0,33.0,-100.00,South,180,0.0,2.0,36,0.00,,,0.00,0.000000,,2013-09-19 12:32:00,
2013-09-19 05:43:00,60.0,33.0,-100.00,South,180,0.0,2.0,36,0.00,,,0.00,0.000000,,2013-09-19 12:43:00,
2013-09-19 05:52:00,60.0,33.0,-100.00,South,180,0.0,2.0,36,0.00,,,0.00,0.000000,,2013-09-19 12:52:00,
2013-09-19 06:42:00,59.0,29.0,-100.00,West,270,1.0,1.0,32,0.00,,,0.00,0.000000,,2013-09-19 13:42:00,
2013-09-19 07:22:00,60.0,31.0,-100.00,WNW,297,1.0,3.0,33,0.00,,,0.00,3.000000,,2013-09-19 14:22:00,
2013-09-19 07:32:00,60.0,31.0,-100.00,WNW,297,1.0,3.0,33,0.00,,,0.00,3.000000,,2013-09-19 14:32:00,
2013-09-19 07:42:00,60.0,31.0,-100.00,WNW,297,1.0,3.0,33,0.00,,,0.00,3.000000,,2013-09-19 14:42:00,
2013-09-19 09:24:00,76.0,31.0,-100.00,ENE,72,6.0,11.0,19,0.00,,,0.00,53.000000,,2013-09-19 16:24:00,
2013-09-19 09:33:00,76.0,31.0,-100.00,ENE,72,6.0,11.0,19,0.00,,,0.00,53.000000,,2013-09-19 16:33:00,
2013-09-19 09:42:00,76.0,31.0,-100.00,ENE,72,6.0,11.0,19,0.00,,,0.00,53.000000,,2013-09-19 16:42:00,
2013-09-19 09:52:00,76.0,31.0,-100.00,ENE,72,6.0,11.0,19,0.00,,,0.00,53.000000,,2013-09-19 16:52:00,
2013-09-19 10:23:00,80.0,27.0,-100.00,ENE,74,8.0,16.0,14,0.00,,,-99.99,495.000000,,2013-09-19 17:23:00,
2013-09-19 10:34:00,80.0,27.0,-100.00,ENE,74,8.0,16.0,14,0.00,,,-99.99,495.000000,,2013-09-19 17:34:00,
2013-09-19 10:42:00,80.0,27.0,-100.00,ENE,74,8.0,16.0,14,0.00,,,-99.99,495.000000,,2013-09-19 17:42:00,
2013-09-19 10:53:00,80.0,27.0,-100.00,ENE,74,8.0,16.0,14,0.00,,,-99.99,495.000000,,2013-09-19 17:53:00,
2013-09-19 11:22:00,81.0,27.0,-100.00,ENE,76,10.0,16.0,14,0.00,,,0.00,765.000000,,2013-09-19 18:22:00,
2013-09-19 11:32:00,81.0,27.0,-100.00,ENE,76,10.0,16.0,14,0.00,,,0.00,765.000000,,2013-09-19 18:32:00,
2013-09-19 11:42:00,81.0,27.0,-100.00,ENE,76,10.0,16.0,14,0.00,,,0.00,765.000000,,2013-09-19 18:42:00,
2013-09-19 11:52:00,81.0,27.0,-100.00,ENE,76,10.0,16.0,14,0.00,,,0.00,765.000000,,2013-09-19 18:52:00,
2013-09-19 12:21:00,83.0,29.0,-100.00,ENE,74,9.0,16.0,14,0.00,,,0.00,896.000000,,2013-09-19 19:21:00,
2013-09-19 12:32:00,83.0,29.0,-100.00,ENE,74,9.0,16.0,14,0.00,,,0.00,896.000000,,2013-09-19 19:32:00,
2013-09-19 12:42:00,83.0,29.0,-100.00,ENE,74,9.0,16.0,14,0.00,,,0.00,896.000000,,2013-09-19 19:42:00,
2013-09-19 12:52:00,83.0,29.0,-100.00,ENE,74,9.0,16.0,14,0.00,,,0.00,896.000000,,2013-09-19 19:52:00,
2013-09-19 13:21:00,83.0,27.0,-100.00,ENE,65,9.0,17.0,13,0.00,,,0.00,955.000000,,2013-09-19 20:21:00,
2013-09-19 13:32:00,83.0,27.0,-100.00,ENE,65,9.0,17.0,13,0.00,,,0.00,955.000000,,2013-09-19 20:32:00,
2013-09-19 13:42:00,83.0,27.0,-100.00,ENE,65,9.0,17.0,13,0.00,,,0.00,955.000000,,2013-09-19 20:42:00,
2013-09-19 13:52:00,83.0,27.0,-100.00,ENE,65,9.0,17.0,13,0.00,,,0.00,955.000000,,2013-09-19 20:52:00,
2013-09-19 13:55:00,85.0,29.0,-100.00,ENE,66,7.0,16.0,13,0.00,,,0.00,943.000000,,2013-09-19 20:55:00,
2013-09-19 14:22:00,85.0,29.0,-100.00,ENE,66,7.0,16.0,13,0.00,,,0.00,943.000000,,2013-09-19 21:22:00,
2013-09-19 14:34:00,85.0,29.0,-100.00,ENE,66,7.0,16.0,13,0.00,,,0.00,943.000000,,2013-09-19 21:34:00,
2013-09-19 14:44:00,85.0,29.0,-100.00,ENE,66,7.0,16.0,13,0.00,,,0.00,943.000000,,2013-09-19 21:44:00,
2013-09-19 15:24:00,85.0,29.0,-100.00,ENE,75,6.0,15.0,13,0.00,,,0.00,860.000000,,2013-09-19 22:24:00,
2013-09-19 15:33:00,85.0,29.0,-100.00,ENE,75,6.0,15.0,13,0.00,,,0.00,860.000000,,2013-09-19 22:33:00,
2013-09-19 15:42:00,85.0,29.0,-100.00,ENE,75,6.0,15.0,13,0.00,,,0.00,860.000000,,2013-09-19 22:42:00,
2013-09-19 15:53:00,85.0,29.0,-100.00,ENE,75,6.0,15.0,13,0.00,,,0.00,860.000000,,2013-09-19 22:53:00,
2013-09-19 16:22:00,85.0,29.0,-100.00,ENE,77,5.0,13.0,13,0.00,,,0.00,716.000000,,2013-09-19 23:22:00,
2013-09-19 16:33:00,85.0,29.0,-100.00,ENE,77,5.0,13.0,13,0.00,,,0.00,716.000000,,2013-09-19 23:33:00,
2013-09-19 16:42:00,85.0,29.0,-100.00,ENE,77,5.0,13.0,13,0.00,,,0.00,716.000000,,2013-09-19 23:42:00,
2013-09-19 16:53:00,85.0,29.0,-100.00,ENE,77,5.0,13.0,13,0.00,,,0.00,716.000000,,2013-09-19 23:53:00,
2013-09-19 17:21:00,84.0,28.0,-100.00,ESE,102,4.0,12.0,13,0.00,,,0.00,476.000000,,2013-09-20 00:21:00,
2013-09-19 17:32:00,84.0,28.0,-100.00,ESE,102,4.0,12.0,13,0.00,,,0.00,476.000000,,2013-09-20 00:32:00,
2013-09-19 17:42:00,84.0,28.0,-100.00,ESE,102,4.0,12.0,13,0.00,,,0.00,476.000000,,2013-09-20 00:42:00,
2013-09-19 18:22:00,77.0,52.0,-100.00,WSW,245,4.0,9.0,42,-99.99,,,0.00,233.000000,,2013-09-20 01:22:00,
2013-09-19 18:32:00,77.0,52.0,-100.00,WSW,245,4.0,9.0,42,-99.99,,,0.00,233.000000,,2013-09-20 01:32:00,
2013-09-19 18:42:00,77.0,52.0,-100.00,WSW,245,4.0,9.0,42,-99.99,,,0.00,233.000000,,2013-09-20 01:42:00,
2013-09-19 18:52:00,77.0,52.0,-100.00,WSW,245,4.0,9.0,42,-99.99,,,0.00,233.000000,,2013-09-20 01:52:00,
2013-09-19 19:22:00,67.0,51.0,-100.00,South,190,1.0,5.0,57,0.00,,,0.00,47.000000,,2013-09-20 02:22:00,
2013-09-19 19:32:00,67.0,51.0,-100.00,South,190,1.0,5.0,57,0.00,,,0.00,47.000000,,2013-09-20 02:32:00,
2013-09-19 19:42:00,67.0,51.0,-100.00,South,190,1.0,5.0,57,0.00,,,0.00,47.000000,,2013-09-20 02:42:00,
2013-09-19 19:55:00,64.0,34.0,-100.00,West,276,0.0,1.0,33,0.00,,,0.00,0.000000,,2013-09-20 02:55:00,
2013-09-19 20:23:00,64.0,34.0,-100.00,West,276,0.0,1.0,33,0.00,,,0.00,0.000000,,2013-09-20 03:23:00,
2013-09-19 20:34:00,64.0,34.0,-100.00,West,276,0.0,1.0,33,0.00,,,0.00,0.000000,,2013-09-20 03:34:00,
2013-09-19 20:45:00,64.0,34.0,-100.00,West,276,0.0,1.0,33,0.00,,,0.00,0.000000,,2013-09-20 03:45:00,
2013-09-19 21:24:00,60.0,32.0,-100.00,SW,221,3.0,4.0,35,0.00,,,0.00,0.000000,,2013-09-20 04:24:00,
2013-09-19 21:34:00,60.0,32.0,-100.00,SW,221,3.0,4.0,35,0.00,,,0.00,0.000000,,2013-09-20 04:34:00,
2013-09-19 21:44:00,60.0,32.0,-100.00,SW,221,3.0,4.0,35,0.00,,,0.00,0.000000,,2013-09-20 04:44:00,
2013-09-19 21:53:00,60.0,32.0,-100.00,SW,221,3.0,4.0,35,0.00,,,0.00,0.000000,,2013-09-20 04:53:00,
2013-09-19 22:23:00,57.0,34.0,-100.00,SW,218,2.0,4.0,42,0.00,,,0.00,0.000000,,2013-09-20 05:23:00,
2013-09-19 22:34:00,57.0,34.0,-100.00,SW,218,2.0,4.0,42,0.00,,,0.00,0.000000,,2013-09-20 05:34:00,
2013-09-19 22:43:00,57.0,34.0,-100.00,SW,218,2.0,4.0,42,0.00,,,0.00,0.000000,,2013-09-20 05:43:00,
2013-09-19 22:53:00,57.0,34.0,-100.00,SW,218,2.0,4.0,42,0.00,,,0.00,0.000000,,2013-09-20 05:53:00,
2013-09-19 23:22:00,56.0,34.0,-100.00,SSW,202,2.0,3.0,44,0.00,,,0.00,0.000000,,2013-09-20 06:22:00,
2013-09-19 23:33:00,56.0,34.0,-100.00,SSW,202,2.0,3.0,44,0.00,,,0.00,0.000000,,2013-09-20 06:33:00,
2013-09-19 23:42:00,56.0,34.0,-100.00,SSW,202,2.0,3.0,44,0.00,,,0.00,0.000000,,2013-09-20 06:42:00,